This demonstration page uses our WeatherBlox Daily Observations layout. Learn more.

Hourly Observations for February 11, 2017

Temp ( °F °C ) Dew Point ( °F °C ) Humidity (%) Winds ( mph kmh ) Pressure ( in mb ) Visibility ( mi km ) Precip ( " mm )
12:54 am 00:54 Clear 38 3.3 32 0 79 79 NW 3 6 29.79 1009 10 16.0934 0 0
1:54 am 01:54 Clear 35 1.7 31 -0.6 85 85 NNW 5 7 29.78 1008 10 16.0934 0 0
2:54 am 02:54 Clear 33 0.6 30 -1.1 89 89 N 5 7 29.78 1009 10 16.0934 0 0
3:54 am 03:54 Clear 33 0.6 30 -1.1 89 89 N 8 13 29.79 1009 10 16.0934 0 0
4:54 am 04:54 Clear 37 2.8 34 1.1 89 89 N 9 15 29.78 1009 10 16.0934 0 0
5:54 am 05:54 Clear 37 2.8 34 1.1 89 89 N 7 11 29.8 1009 10 16.0934 0 0
6:54 am 06:54 Clear 38 3.3 34 1.1 86 86 NNE 7 11 29.82 1010 10 16.0934 0 0
7:54 am 07:54 Sunny 37 2.8 34 1.1 89 89 N 9 15 29.84 1011 10 16.0934 0 0
8:54 am 08:54 Sunny 42 5.6 36 2.2 79 79 N 9 15 29.87 1012 10 16.0934 0 0
9:54 am 09:54 Sunny 45 7.2 36 2.2 71 71 NE 7 11 29.88 1012 10 16.0934 0 0
10:54 am 10:54 Sunny 50 10 37 2.8 61 61 ENE 13 20 29.88 1012 10 16.0934 0 0
11:54 am 11:54 Sunny 54 12.2 37 2.8 53 53 ENE 17 28 29.86 1011 10 16.0934 0 0
12:54 pm 12:54 Sunny 56 13.3 37 2.8 49 49 NE 10 17 29.84 1010 10 16.0934 0 0
1:54 pm 13:54 Sunny 59 15 38 3.3 46 46 NE 10 17 29.83 1010 10 16.0934 0 0
2:54 pm 14:54 Sunny 58 14.4 37 2.8 46 46 NNE 17 28 29.85 1011 10 16.0934 0 0
3:54 pm 15:54 Sunny 56 13.3 39 3.9 53 53 N 16 26 29.87 1012 10 16.0934 0 0
4:54 pm 16:54 Sunny 53 11.7 39 3.9 59 59 NNE 15 24 29.9 1013 10 16.0934 0 0
5:54 pm 17:54 Sunny 47 8.3 39 3.9 74 74 N 15 24 29.96 1014 10 16.0934 0 0
6:54 pm 18:54 Clear 45 7.2 38 3.3 77 77 N 14 22 30.01 1016 10 16.0934 0 0
7:54 pm 19:54 Clear 43 6.1 37 2.8 80 80 N 15 24 30.04 1017 10 16.0934 0 0
8:54 pm 20:54 Clear 43 6.1 36 2.2 76 76 N 10 17 30.06 1018 10 16.0934 0 0
9:54 pm 21:54 Clear 42 5.6 35 1.7 76 76 N 12 19 30.08 1019 10 16.0934 0 0
10:54 pm 22:54 Cloudy 43 6.1 35 1.7 74 74 N 17 28 30.13 1020 10 16.0934 0 0
11:54 pm 23:54 Cloudy 43 6.1 36 2.2 76 76 N 21 33 30.19 1022 10 16.0934 0 0

Powered by AerisWeather